Location: Guayaquil
(2.1667°S, 79.9000°W)
Time: 21:51:54
(UTC-05:00)

Envisat - Visible Passes

Search period start: 26 July 2017 00:00
Search period end: 05 August 2017 00:00
Orbit: 764 x 766 km, 98.2° (Epoch: 26 July)

Date Brightness Start Highest point End Pass type
(mag) Time Alt. Az. Time Alt. Az. Time Alt. Az.
26 Jul 4.9 20:15:47 17° NNE 20:15:47 17° NNE 20:17:08 10° NNE visible
27 Jul 5.7 21:18:53 14° NW 21:18:53 14° NW 21:19:32 10° NNW visible
28 Jul 5.0 20:41:47 19° N 20:41:47 19° N 20:43:14 10° N visible
29 Jul 5.0 20:04:41 14° NNE 20:04:41 14° NNE 20:05:36 10° NNE visible
30 Jul 5.5 21:07:47 15° NNW 21:07:47 15° NNW 21:08:42 10° NNW visible
31 Jul 5.0 20:30:41 18° N 20:30:41 18° N 20:32:02 10° N visible
01 Aug 5.2 19:53:35 11° NE 19:53:35 11° NE 19:53:51 10° NE visible
02 Aug 5.3 20:56:42 16° NNW 20:56:42 16° NNW 20:57:44 10° NNW visible
03 Aug 5.0 20:19:36 16° NNE 20:19:36 16° NNE 20:20:42 10° NNE visible
04 Aug 5.9 21:22:43 11° NW 21:22:43 11° NW 21:22:50 10° NW visible
